TimeMDT,TemperatureF,Dew PointF,Humidity,Sea Level PressureIn,VisibilityMPH,Wind Direction,Wind SpeedMPH,Gust SpeedMPH,PrecipitationIn,Events,Conditions,WindDirDegrees,DateUTC
12:56 AM,55.0,37.9,53,29.84,10.0,South,5.8,-,N/A,,Clear,170,2013-07-22 06:56:00
1:56 AM,55.0,39.0,55,29.84,10.0,South,4.6,-,N/A,,Clear,180,2013-07-22 07:56:00
2:56 AM,53.1,39.9,61,29.84,10.0,SE,3.5,-,N/A,,Clear,130,2013-07-22 08:56:00
3:56 AM,53.1,39.9,61,29.84,10.0,ENE,5.8,-,N/A,,Clear,60,2013-07-22 09:56:00
4:56 AM,51.1,37.9,61,29.85,10.0,South,6.9,-,N/A,,Clear,190,2013-07-22 10:56:00
5:56 AM,46.0,39.9,79,29.87,10.0,Calm,Calm,-,N/A,,Clear,0,2013-07-22 11:56:00
6:56 AM,50.0,41.0,71,29.88,10.0,ESE,6.9,-,N/A,,Clear,120,2013-07-22 12:56:00
7:56 AM,60.1,45.0,57,29.87,10.0,Calm,Calm,-,N/A,,Clear,0,2013-07-22 13:56:00
8:56 AM,66.0,43.0,43,29.88,10.0,ENE,3.5,-,N/A,,Clear,60,2013-07-22 14:56:00
9:56 AM,72.0,45.0,38,29.86,10.0,Calm,Calm,-,N/A,,Clear,0,2013-07-22 15:56:00
10:56 AM,78.1,37.9,24,29.86,10.0,Variable,3.5,-,N/A,,Clear,0,2013-07-22 16:56:00
11:56 AM,82.0,37.9,21,29.88,10.0,Variable,3.5,-,N/A,,Clear,0,2013-07-22 17:56:00
12:56 PM,82.0,42.1,24,29.86,10.0,Variable,5.8,-,N/A,,Clear,0,2013-07-22 18:56:00
1:56 PM,84.0,39.0,20,29.84,10.0,North,11.5,-,N/A,,Clear,350,2013-07-22 19:56:00
2:56 PM,89.1,30.0,12,29.83,10.0,Variable,4.6,-,N/A,,Clear,0,2013-07-22 20:56:00
3:47 PM,91.4,21.2,8,29.94,10.0,NW,11.5,23.0,N/A,,Clear,310,2013-07-22 21:47:00
3:56 PM,91.9,19.9,7,29.81,10.0,West,11.5,24.2,N/A,,Clear,270,2013-07-22 21:56:00
4:56 PM,91.9,12.0,5,29.80,10.0,WNW,21.9,27.6,N/A,,Clear,290,2013-07-22 22:56:00
5:56 PM,89.1,28.9,12,29.82,10.0,NNW,13.8,20.7,N/A,,Clear,330,2013-07-22 23:56:00
6:56 PM,84.9,32.0,15,29.82,10.0,North,9.2,-,N/A,,Clear,360,2013-07-23 00:56:00
7:56 PM,80.1,33.1,18,29.83,10.0,NNE,10.4,-,N/A,,Clear,20,2013-07-23 01:56:00
8:56 PM,72.0,35.1,26,29.86,10.0,North,6.9,-,N/A,,Clear,350,2013-07-23 02:56:00
9:56 PM,71.1,28.9,21,29.88,10.0,West,3.5,-,N/A,,Clear,280,2013-07-23 03:56:00
10:56 PM,59.0,41.0,51,29.92,10.0,SSE,8.1,-,N/A,,Clear,160,2013-07-23 04:56:00
11:56 PM,63.0,36.0,37,29.93,10.0,South,11.5,-,N/A,,Clear,170,2013-07-23 05:56:00